Powrót do katalogu

SL-16 DEB

AktywnyLEO
NORAD 22426·DEBRIS·🇷🇺 Russia

Wystrzelony Dec 25, 1992 z Baikonur Cosmodrome

Loading…

Następne Przeloty (najbliższe 24 godziny)

TLE

ŚwieżeSource: Space-Track

Epoka: Sep 14, 2026, 08:00 UTC

1 22426U 92093DT  26257.33347594  .00001141  00000-0  43053-3 0  9994
2 22426  71.3462  99.3472 0119294  67.5977 105.6334 14.29485580735926

Śledź SL-16 DEB w czasie rzeczywistym z AllMySat

Download on the App Store